Parkersburg, WV

12:04 AM EST on February 20, 2017 (GMT -0500)
Wood County Wilson

Weather History for KPKB - February, 2013

Change the Weather History Date:

Saturday, February 16, 2013

  Actual Average Record
Temperature  
Mean Temperature 27 °F 35 °F  
Max Temperature 32 °F 44 °F 74 °F (1921)
Min Temperature 22 °F 26 °F -6 °F (1963)
Degree Days  
Heating Degree Days 38 30  
Month to date heating degree days 512 504  
Since 1 July heating degree days 3353 3449  
Cooling Degree Days 0 0  
Month to date cooling degree days 0 0  
Year to date cooling degree days 0 0  
Moisture  
Dew Point 18 °F    
Average Humidity 66    
Maximum Humidity 88    
Minimum Humidity 43    
Precipitation  
Precipitation 0.01 in 0.09 in 0.68 in (2003)
Month to date precipitation 0.68 1.52  
Year to date precipitation 4.06 4.47  
Sea Level Pressure  
Sea Level Pressure 30.06 in    
Wind  
Wind Speed 6 mph (WNW)    
Max Wind Speed 21 mph    
Max Gust Speed 26 mph    
Visibility 8 miles    
Events Snow    
T = Trace of Precipitation, MM = Missing Value Source: NWS Daily Summary

Daily Weather History Graph

Daily Weather History Graph

Search for Another Location

Airport or City:

Trip Planner

Search our weather history database for the weather conditions in past years. The results will help you decide how hot, cold, wet, or windy it might be!

Date:

Astronomy

Feb. 16, 2013 Rise Set
Actual Time 7:16 AM EST 6:04 PM EST
Civil Twilight 6:48 AM EST 6:31 PM EST
Nautical Twilight 6:17 AM EST 7:02 PM EST
Astronomical Twilight 5:46 AM EST 7:34 PM EST
Moon 10:30 AM EST (2/16) 12:00 AM EST (2/16)
Length of Visible Light 11h 42m
Length of Day
10h 47m
Waxing Crescent, 39% of the Moon is Illuminated
Feb 16
Waxing Crescent
Feb 17
First Quarter
Feb 25
Full
Mar 4
Last Quarter
Mar 11
New

Hourly Weather History & Observations

Time (EST) Temp. Windchill Dew Point Humidity Pressure Visibility Wind Dir Wind Speed Gust Speed Precip Events Conditions
12:02 AM 32.0 °F 27.5 °F 28.4 °F 87% 30.10 in 4.0 mi NW 4.6 mph - 0.00 in Snow Light Snow
12:53 AM 28.9 °F 21.1 °F 23.0 °F 78% 30.13 in 8.0 mi NNW 8.1 mph - 0.00 in   Overcast
1:13 AM 28.4 °F 21.2 °F 21.2 °F 74% 30.10 in 7.0 mi NNW 6.9 mph - 0.00 in   Overcast
1:53 AM 28.0 °F 22.8 °F 21.9 °F 78% 30.12 in 10.0 mi NNW 4.6 mph - 0.00 in   Overcast
2:53 AM 28.0 °F - 23.0 °F 81% 30.12 in 9.0 mi Calm Calm - 0.00 in   Overcast
3:35 AM 28.4 °F - 23.0 °F 80% 30.08 in 10.0 mi Calm Calm - N/A   Overcast
3:53 AM 28.0 °F - 23.0 °F 81% 30.09 in 10.0 mi Calm Calm - N/A   Overcast
4:53 AM 27.0 °F - 21.0 °F 78% 30.09 in 10.0 mi Calm Calm - N/A   Partly Cloudy
5:53 AM 25.0 °F 20.7 °F 21.0 °F 85% 30.10 in 10.0 mi NW 3.5 mph - N/A   Scattered Clouds
6:53 AM 23.0 °F 18.4 °F 19.9 °F 88% 30.09 in 8.0 mi WNW 3.5 mph - N/A   Mostly Cloudy
7:53 AM 24.1 °F - 21.0 °F 88% 30.10 in 7.0 mi Calm Calm - N/A   Mostly Cloudy
8:53 AM 26.1 °F - 21.9 °F 84% 30.11 in 7.0 mi Calm Calm - N/A   Overcast
9:53 AM 28.0 °F 24.2 °F 21.0 °F 75% 30.09 in 10.0 mi NNE 3.5 mph - N/A   Scattered Clouds
10:53 AM 28.0 °F - 19.0 °F 69% 30.08 in 10.0 mi Calm Calm - N/A   Overcast
11:53 AM 32.0 °F 27.5 °F 19.9 °F 61% 30.06 in 10.0 mi NNW 4.6 mph - N/A   Overcast
12:00 PM 30.2 °F - 17.6 °F 60% 30.04 in 10.0 mi Calm Calm - N/A   Overcast
12:53 PM 30.9 °F 22.2 °F 14.0 °F 50% 30.04 in 10.0 mi West 10.4 mph - N/A   Overcast
1:00 PM 30.2 °F 24.3 °F 14.0 °F 51% 30.01 in 10.0 mi West 5.8 mph - N/A   Mostly Cloudy
1:53 PM 30.0 °F 24.1 °F 12.9 °F 49% 30.02 in 10.0 mi WNW 5.8 mph 16.1 mph N/A   Mostly Cloudy
2:53 PM 30.9 °F 23.5 °F 10.9 °F 43% 30.02 in 10.0 mi NW 8.1 mph - N/A   Overcast
3:53 PM 30.9 °F 26.2 °F 10.0 °F 42% 30.02 in 10.0 mi WNW 4.6 mph - N/A   Mostly Cloudy
4:53 PM 30.9 °F 26.2 °F 12.0 °F 46% 30.01 in 10.0 mi NNW 4.6 mph - N/A   Mostly Cloudy
5:53 PM 30.0 °F 23.2 °F 12.9 °F 49% 30.02 in 10.0 mi West 6.9 mph - N/A   Overcast
6:53 PM 28.0 °F 19.3 °F 18.0 °F 66% 30.04 in 10.0 mi WNW 9.2 mph - N/A   Overcast
7:10 PM 26.6 °F 18.2 °F 19.4 °F 74% 30.01 in 1.8 mi NW 8.1 mph 20.7 mph 0.00 in Snow Light Snow
7:32 PM 26.6 °F 18.2 °F 21.2 °F 80% 30.01 in 3.0 mi WNW 8.1 mph - 0.00 in Snow Light Snow
7:53 PM 26.1 °F 18.4 °F 21.0 °F 81% 30.04 in 9.0 mi West 6.9 mph - 0.00 in   Overcast
8:19 PM 26.6 °F 13.8 °F 17.6 °F 69% 30.01 in 1.8 mi WNW 17.3 mph 25.3 mph 0.00 in Snow Light Snow
8:30 PM 26.6 °F 14.3 °F 15.8 °F 64% 30.01 in 3.0 mi WNW 16.1 mph 24.2 mph 0.01 in Snow Light Snow
8:45 PM 24.8 °F 11.1 °F 15.8 °F 69% 30.02 in 10.0 mi WNW 18.4 mph 26.5 mph 0.01 in   Overcast
8:53 PM 25.0 °F 11.3 °F 15.1 °F 66% 30.05 in 10.0 mi West 18.4 mph 26.5 mph 0.01 in   Overcast
9:53 PM 24.1 °F 13.7 °F 14.0 °F 65% 30.06 in 10.0 mi WNW 10.4 mph 19.6 mph N/A   Overcast
10:53 PM 23.0 °F 10.6 °F 12.0 °F 63% 30.06 in 10.0 mi WNW 13.8 mph 20.7 mph N/A   Overcast
11:53 PM 21.9 °F 11.7 °F 12.0 °F 66% 30.06 in 10.0 mi WNW 9.2 mph 21.9 mph N/A   Overcast